Flag for U.S.A. Weather past 2 weeks in Germantown, Maryland, U.S.A.

Now
86 °F

Partly sunny.


Feels Like: 95 °F
Forecast: 69 / 80 °F
Wind: 8 mph from South

Location: Frederick Municipal Airport

Current Time: Jul 6, 2015 at 4:15:53 PM

Latest Report: Jul 6, 2015 at 2:55 PM


Visibility: 10 mi

Pressure: 30.08 "Hg

Humidity: 70%

Dew point: 75 °F

Location of GermantownLocation

Historic Weather in Germantown — Graph

°F

Germantown temperature yesterday

Maximum temperature yesterday: 84 °F (at 3:50 PM)
Minimum temperature yesterday: 63 °F (at 1:25 AM)
Average temperature yesterday: 71 °F

Past Weeks' High & Low Weather Summary

 TemperatureHumidityPressure
High93 °F (Jun 23, 3:55 PM)100% (Jun 22, 4:00 AM)30.20 "Hg (Jun 22, 4:00 AM)
Low54 °F (Jun 29, 4:45 AM)12% (Jun 23, 3:55 PM)27.23 "Hg (Jun 30, 5:45 PM)
Average70 °F89%29.97 "Hg
* Reported Jun 21 2:52 PM — Jul 6 2:55 PM, Germantown, Weather by CustomWeather, © 2015

Note: Actual official high and low records may vary slightly from our data, if they occured in-between our weather recording intervals... More about our weather records

Advertising

Germantown weather history for previous 24 hours

 ConditionsComfort  
Time TempWeatherWind HumidityBarometerVisibility
2:55 PM
Mon, Jul 6
86 °FPartly sunny.8 mph70%30.08 "Hg10 mi
1:55 PM82 °FPartly sunny.9 mph79%30.10 "Hg10 mi
12:50 PM81 °FLight rain. Mostly cloudy.8 mph89%30.12 "Hg7 mi
11:50 AM82 °FBroken clouds.7 mph79%30.13 "Hg10 mi
10:47 AM79 °FBroken clouds.No wind89%30.14 "Hg10 mi
9:50 AM77 °FHeavy rain. Broken clouds.6 mph94%30.15 "Hg2 mi
8:51 AM77 °FFog.No wind94%30.15 "Hg7 mi
7:51 AM75 °FFog.No wind94%30.15 "Hg2 mi
6:47 AM72 °FFog.No wind100%30.14 "Hg2 mi
6:25 AM70 °FFog.No wind100%30.14 "Hg2 mi
6:10 AM70 °FFog.No wind100%30.14 "Hg3 mi
5:50 AM72 °FFog.No wind100%30.14 "Hg2 mi
5:30 AM72 °FFog.No wind100%30.14 "Hg3 mi
5:10 AM72 °FFog.No wind100%30.13 "Hg3 mi
4:50 AM70 °FFog.No wind100%30.13 "Hg2 mi
4:30 AM72 °FFog.No wind100%30.14 "Hg3 mi
4:10 AM70 °FLight rain. Overcast.No wind100%30.13 "Hg3 mi
3:50 AM70 °FFog.No wind100%30.13 "Hg3 mi
3:30 AM72 °FLight rain. Passing clouds.No wind100%30.14 "Hg3 mi
3:10 AM72 °FPassing clouds.No wind100%30.15 "Hg4 mi
2:50 AM72 °FFog.No wind100%30.14 "Hg4 mi
2:30 AM72 °FLight rain. Partly cloudy.No wind100%30.15 "Hg5 mi
2:10 AM72 °FRain. Mostly cloudy.No wind100%30.15 "Hg4 mi
1:50 AM72 °FLight rain. Mostly cloudy.No wind100%30.15 "Hg5 mi
1:30 AM73 °FLight rain. Partly cloudy.No wind94%30.15 "Hg7 mi
1:10 AM73 °FLight rain. Passing clouds.No wind94%30.15 "Hg7 mi
12:50 AM72 °FLight rain. Clear.No wind100%30.15 "Hg7 mi
12:30 AM73 °FClear.No wind94%30.15 "Hg10 mi
12:10 AM73 °FClear.No wind94%30.15 "Hg10 mi
11:50 PM
Sun, Jul 5
73 °FClear.No wind94%30.15 "Hg10 mi
11:30 PM73 °FClear.No wind94%30.16 "Hg10 mi
11:10 PM73 °FClear.No wind94%30.15 "Hg10 mi
10:50 PM73 °FClear.No wind94%30.16 "Hg10 mi
10:30 PM75 °FPassing clouds.3 mph89%30.15 "Hg10 mi
10:05 PM75 °FPassing clouds.5 mph89%30.15 "Hg10 mi
9:45 PM77 °FPassing clouds.5 mph83%30.14 "Hg10 mi
9:25 PM77 °FOvercast.5 mph89%30.14 "Hg10 mi
9:05 PM77 °FMostly cloudy.No wind89%30.14 "Hg7 mi
8:45 PM77 °FPartly sunny.No wind89%30.14 "Hg10 mi
7:45 PM81 °FSunny.No wind84%30.13 "Hg10 mi
6:45 PM82 °FPartly sunny.5 mph74%30.12 "Hg10 mi
Weather by CustomWeather, © 2015

See weather overviewHow to use our weather pages